FFT3330 KDFW-KRDU

Flight info

Callsign FFT3330
Flight time 2h 4m
Altitude 35000
Route TRYTN4 LOOSE MEM VXV KPASS ALDAN4
Aircraft A321/M-SDE3FGHIRWY/LB1

Departure

Time 2026-05-06 21:29
Airport Dallas Fort Worth International Airport (KDFW)

Arrival

Time 2026-05-06 23:33
Airport Raleigh-Durham International Airport (KRDU)
Time Latitude Longitude Altitude Speed Heading
2026-05-06 21:01 32.88849 -97.03588 585 ft 0 kts 322°
2026-05-06 21:15 32.88844 -97.03583 584 ft 4 kts 323°
2026-05-06 21:16 32.88826 -97.03567 584 ft 2 kts 315°
2026-05-06 21:16 32.88810 -97.03546 584 ft 4 kts 311°
2026-05-06 21:16 32.88803 -97.03545 584 ft 4 kts 219°
2026-05-06 21:16 32.88824 -97.03527 584 ft 4 kts 213°
2026-05-06 21:17 32.88839 -97.03515 584 ft 0 kts 213°
2026-05-06 21:20 32.88839 -97.03516 584 ft 1 kts 213°
2026-05-06 21:20 32.88835 -97.03519 584 ft 0 kts 213°
2026-05-06 21:21 32.88823 -97.03528 584 ft 7 kts 213°
2026-05-06 21:21 32.88739 -97.03587 584 ft 18 kts 184°
2026-05-06 21:21 32.88628 -97.03553 584 ft 15 kts 149°
2026-05-06 21:22 32.88603 -97.03441 583 ft 15 kts 89°
2026-05-06 21:22 32.88579 -97.03333 580 ft 15 kts 145°
2026-05-06 21:22 32.88469 -97.03295 579 ft 17 kts 161°
2026-05-06 21:22 32.88345 -97.03287 579 ft 21 kts 181°
2026-05-06 21:23 32.88201 -97.03291 575 ft 20 kts 181°
2026-05-06 21:23 32.88065 -97.03293 581 ft 19 kts 181°
2026-05-06 21:23 32.87978 -97.03228 582 ft 12 kts 96°
2026-05-06 21:23 32.87978 -97.03150 581 ft 10 kts 90°
2026-05-06 21:24 32.87978 -97.03134 578 ft 0 kts 90°
2026-05-06 21:25 32.87978 -97.03131 578 ft 1 kts 90°
2026-05-06 21:26 32.87978 -97.03093 574 ft 13 kts 91°
2026-05-06 21:26 32.88022 -97.03008 573 ft 9 kts
2026-05-06 21:26 32.88037 -97.03008 573 ft 0 kts 360°
2026-05-06 21:27 32.88041 -97.03008 573 ft 4 kts 360°
2026-05-06 21:28 32.88256 -97.03006 576 ft 65 kts
2026-05-06 21:28 32.88917 -97.03002 576 ft 122 kts
2026-05-06 21:28 32.89914 -97.02998 580 ft 163 kts
2026-05-06 21:28 32.91097 -97.03003 997 ft 168 kts
2026-05-06 21:29 32.92268 -97.02997 1552 ft 169 kts
2026-05-06 21:29 32.93446 -97.02971 2160 ft 169 kts
2026-05-06 21:29 32.94655 -97.02937 2449 ft 183 kts
2026-05-06 21:29 32.95965 -97.02894 2575 ft 198 kts
2026-05-06 21:30 32.97385 -97.02848 2779 ft 208 kts
2026-05-06 21:30 32.98912 -97.02798 2888 ft 233 kts
2026-05-06 21:30 33.00603 -97.02741 3321 ft 249 kts
2026-05-06 21:30 33.02361 -97.02683 3992 ft 256 kts
2026-05-06 21:31 33.04169 -97.02621 4643 ft 264 kts
2026-05-06 21:31 33.05973 -97.02061 5267 ft 277 kts 27°
2026-05-06 21:31 33.07409 -97.00489 5923 ft 289 kts 56°
2026-05-06 21:31 33.08065 -96.98196 6550 ft 300 kts 84°
2026-05-06 21:32 33.08228 -96.95688 6923 ft 305 kts 86°
2026-05-06 21:32 33.07880 -96.90646 8187 ft 308 kts 102°
2026-05-06 21:32 33.07512 -96.88120 8904 ft 311 kts 103°
2026-05-06 21:33 33.07158 -96.85600 9567 ft 314 kts 103°
2026-05-06 21:33 33.06757 -96.83034 10218 ft 315 kts 109°
2026-05-06 21:33 33.06012 -96.80519 10549 ft 333 kts 116°
2026-05-06 21:33 33.05110 -96.77875 10786 ft 356 kts 117°
2026-05-06 21:34 33.04144 -96.75097 11307 ft 368 kts 117°
2026-05-06 21:34 33.03156 -96.72255 11873 ft 374 kts 117°
2026-05-06 21:34 33.02153 -96.69362 12416 ft 380 kts 117°
2026-05-06 21:34 33.01143 -96.66433 12981 ft 385 kts 117°
2026-05-06 21:35 33.00122 -96.63461 13539 ft 390 kts 118°
2026-05-06 21:35 32.99091 -96.60458 14063 ft 395 kts 118°
2026-05-06 21:35 32.98045 -96.57415 14523 ft 399 kts 118°
2026-05-06 21:35 32.96985 -96.54337 15019 ft 404 kts 119°
2026-05-06 21:36 32.95909 -96.51223 15543 ft 409 kts 120°
2026-05-06 21:36 32.95188 -96.49142 15894 ft 411 kts 120°
2026-05-06 21:36 32.94091 -96.45977 16397 ft 416 kts 120°
2026-05-06 21:36 32.92983 -96.42784 16871 ft 420 kts 120°
2026-05-06 21:37 32.91878 -96.39543 17337 ft 427 kts 117°
2026-05-06 21:37 32.91129 -96.36069 17803 ft 441 kts 104°
2026-05-06 21:37 32.90953 -96.32379 18232 ft 454 kts 91°
2026-05-06 21:37 32.91398 -96.28621 18622 ft 463 kts 78°
2026-05-06 21:38 32.92443 -96.24972 19020 ft 468 kts 69°
2026-05-06 21:38 32.93637 -96.21353 19435 ft 471 kts 69°
2026-05-06 21:38 32.94828 -96.17700 19843 ft 474 kts 70°
2026-05-06 21:38 32.95999 -96.14073 20241 ft 477 kts 70°
2026-05-06 21:39 32.97192 -96.10364 20645 ft 480 kts 70°
2026-05-06 21:39 32.98391 -96.06632 21058 ft 483 kts 69°
2026-05-06 21:39 32.99591 -96.02885 21483 ft 485 kts 69°
2026-05-06 21:39 33.00801 -95.99115 21885 ft 488 kts 69°
2026-05-06 21:40 33.02022 -95.95320 22290 ft 492 kts 69°
2026-05-06 21:40 33.03255 -95.91493 22621 ft 497 kts 69°
2026-05-06 21:40 33.04494 -95.87640 22998 ft 500 kts 69°
2026-05-06 21:40 33.05744 -95.83745 23383 ft 503 kts 69°
2026-05-06 21:41 33.06994 -95.79846 23728 ft 506 kts 69°
2026-05-06 21:41 33.08255 -95.75917 24032 ft 508 kts 69°
2026-05-06 21:41 33.09521 -95.71965 24337 ft 511 kts 69°
2026-05-06 21:41 33.10776 -95.68046 24647 ft 514 kts 69°
2026-05-06 21:42 33.12056 -95.64048 24956 ft 516 kts 69°
2026-05-06 21:42 33.13341 -95.60028 25302 ft 519 kts 69°
2026-05-06 21:42 33.14628 -95.55997 25613 ft 521 kts 70°
2026-05-06 21:42 33.15920 -95.51943 25909 ft 523 kts 70°
2026-05-06 21:43 33.17217 -95.47867 26198 ft 526 kts 70°
2026-05-06 21:43 33.18515 -95.43785 26483 ft 528 kts 70°
2026-05-06 21:43 33.19801 -95.39732 26760 ft 530 kts 70°
2026-05-06 21:43 33.21107 -95.35607 27040 ft 533 kts 70°
2026-05-06 21:44 33.22420 -95.31455 27340 ft 534 kts 70°
2026-05-06 21:44 33.23732 -95.27305 27725 ft 533 kts 70°
2026-05-06 21:44 33.25042 -95.23151 28052 ft 534 kts 70°
2026-05-06 21:44 33.26354 -95.18986 28342 ft 536 kts 69°
2026-05-06 21:45 33.27672 -95.14804 28613 ft 538 kts 70°
2026-05-06 21:45 33.28992 -95.10614 28871 ft 540 kts 70°
2026-05-06 21:45 33.30319 -95.06398 29131 ft 542 kts 70°
2026-05-06 21:45 33.31629 -95.02223 29365 ft 544 kts 70°
2026-05-06 21:46 33.32956 -94.97980 29613 ft 546 kts 70°
2026-05-06 21:46 33.34284 -94.93724 29865 ft 547 kts 70°
2026-05-06 21:46 33.35615 -94.89458 30123 ft 548 kts 70°
2026-05-06 21:46 33.36950 -94.85179 30314 ft 550 kts 70°
2026-05-06 21:47 33.38289 -94.80877 30564 ft 551 kts 70°
2026-05-06 21:47 33.39628 -94.76574 30834 ft 551 kts 70°
2026-05-06 21:47 33.40962 -94.72272 31091 ft 552 kts 70°
2026-05-06 21:47 33.42294 -94.67967 31351 ft 552 kts 70°
2026-05-06 21:48 33.43628 -94.63655 31608 ft 553 kts 70°
2026-05-06 21:48 33.44964 -94.59335 31863 ft 553 kts 70°
2026-05-06 21:48 33.46299 -94.55011 32116 ft 553 kts 70°
2026-05-06 21:48 33.47633 -94.50695 32437 ft 552 kts 70°
2026-05-06 21:49 33.48967 -94.46380 32735 ft 552 kts 70°
2026-05-06 21:49 33.50283 -94.42116 33002 ft 552 kts 70°
2026-05-06 21:49 33.51628 -94.37736 33283 ft 552 kts 70°
2026-05-06 21:49 33.52934 -94.33468 33559 ft 552 kts 70°
2026-05-06 21:50 33.54256 -94.29139 33826 ft 553 kts 70°
2026-05-06 21:50 33.55574 -94.24815 34076 ft 553 kts 71°
2026-05-06 21:50 33.56884 -94.20475 34293 ft 553 kts 71°
2026-05-06 21:50 33.58184 -94.16120 34476 ft 554 kts 71°
2026-05-06 21:51 33.59476 -94.11757 34665 ft 555 kts 71°
2026-05-06 21:51 33.60763 -94.07391 34857 ft 556 kts 71°
2026-05-06 21:51 33.62057 -94.03003 34998 ft 556 kts 71°
2026-05-06 21:51 33.63347 -93.98635 34998 ft 553 kts 71°
2026-05-06 21:52 33.65914 -93.89967 34995 ft 551 kts 71°
2026-05-06 21:52 33.68459 -93.81361 34992 ft 551 kts 71°
2026-05-06 21:53 33.71008 -93.72712 34983 ft 548 kts 71°
2026-05-06 21:53 33.73541 -93.64068 34984 ft 548 kts 71°
2026-05-06 21:54 33.76068 -93.55423 34996 ft 548 kts 71°
2026-05-06 21:54 33.78595 -93.46761 35006 ft 548 kts 71°
2026-05-06 21:55 33.81112 -93.38106 35007 ft 548 kts 71°
2026-05-06 21:55 33.83625 -93.29443 35014 ft 548 kts 71°
2026-05-06 21:56 33.86131 -93.20768 35025 ft 548 kts 71°
2026-05-06 21:56 33.88622 -93.12092 35029 ft 548 kts 71°
2026-05-06 21:57 33.91485 -93.03658 35001 ft 548 kts 64°
2026-05-06 21:57 33.94653 -92.95295 35049 ft 549 kts 65°
2026-05-06 21:58 33.97809 -92.86914 35044 ft 549 kts 65°
2026-05-06 21:58 34.00950 -92.78530 35041 ft 548 kts 65°
2026-05-06 21:59 34.04088 -92.70146 35036 ft 548 kts 65°
2026-05-06 21:59 34.07218 -92.61750 35014 ft 548 kts 65°
2026-05-06 22:00 34.10328 -92.53403 35015 ft 549 kts 65°
2026-05-06 22:00 34.13457 -92.44983 35018 ft 550 kts 65°
2026-05-06 22:01 34.16581 -92.36547 35022 ft 550 kts 65°
2026-05-06 22:01 34.19701 -92.28101 35044 ft 550 kts 66°
2026-05-06 22:02 34.22818 -92.19646 35048 ft 551 kts 66°
2026-05-06 22:02 34.25927 -92.11188 35045 ft 551 kts 66°
2026-05-06 22:03 34.29013 -92.02776 35042 ft 551 kts 66°
2026-05-06 22:03 34.32113 -91.94306 35041 ft 551 kts 66°
2026-05-06 22:04 34.35207 -91.85825 35023 ft 551 kts 66°
2026-05-06 22:04 34.38295 -91.77334 35017 ft 551 kts 66°
2026-05-06 22:05 34.41377 -91.68826 35021 ft 551 kts 66°
2026-05-06 22:05 34.44433 -91.60365 35025 ft 552 kts 66°
2026-05-06 22:06 34.47511 -91.51835 35075 ft 552 kts 66°
2026-05-06 22:06 34.50589 -91.43288 35052 ft 553 kts 66°
2026-05-06 22:07 34.53664 -91.34727 35050 ft 553 kts 66°
2026-05-06 22:07 34.56706 -91.26212 35046 ft 553 kts 66°
2026-05-06 22:08 34.59761 -91.17639 35052 ft 554 kts 66°
2026-05-06 22:08 34.62820 -91.09069 35052 ft 553 kts 66°
2026-05-06 22:09 34.65871 -91.00492 35059 ft 553 kts 67°
2026-05-06 22:09 34.68911 -90.91914 35059 ft 552 kts 67°
2026-05-06 22:10 34.71945 -90.83336 35051 ft 552 kts 67°
2026-05-06 22:10 34.74976 -90.74723 35035 ft 556 kts 67°
2026-05-06 22:11 34.78013 -90.66065 35022 ft 556 kts 67°
2026-05-06 22:11 34.81021 -90.57462 35013 ft 557 kts 67°
2026-05-06 22:12 34.84051 -90.48785 34999 ft 557 kts 67°
2026-05-06 22:12 34.87078 -90.40111 35006 ft 557 kts 67°
2026-05-06 22:13 34.90092 -90.31432 34999 ft 556 kts 67°
2026-05-06 22:13 34.93094 -90.22749 35006 ft 556 kts 67°
2026-05-06 22:14 34.96090 -90.14060 35015 ft 556 kts 67°
2026-05-06 22:14 34.99083 -90.05385 35011 ft 555 kts 67°
2026-05-06 22:15 35.01804 -89.96509 34987 ft 562 kts 76°
2026-05-06 22:15 35.03419 -89.87232 34986 ft 563 kts 79°
2026-05-06 22:16 35.05023 -89.77877 34977 ft 564 kts 79°
2026-05-06 22:16 35.06631 -89.68515 34981 ft 563 kts 79°
2026-05-06 22:17 35.08227 -89.59137 34996 ft 564 kts 79°
2026-05-06 22:17 35.09818 -89.49746 35009 ft 564 kts 79°
2026-05-06 22:18 35.11400 -89.40361 35023 ft 565 kts 79°
2026-05-06 22:18 35.12968 -89.30957 35029 ft 565 kts 79°
2026-05-06 22:19 35.14529 -89.21555 35021 ft 565 kts 80°
2026-05-06 22:19 35.16092 -89.12140 35012 ft 565 kts 80°
2026-05-06 22:20 35.17634 -89.02791 35038 ft 565 kts 80°
2026-05-06 22:20 35.19179 -88.93361 35038 ft 565 kts 80°
2026-05-06 22:21 35.20720 -88.83940 35026 ft 565 kts 80°
2026-05-06 22:21 35.22259 -88.74505 35030 ft 566 kts 80°
2026-05-06 22:22 35.23791 -88.65068 35032 ft 565 kts 80°
2026-05-06 22:22 35.25309 -88.55613 35013 ft 567 kts 80°
2026-05-06 22:23 35.26820 -88.46119 34992 ft 568 kts 80°
2026-05-06 22:23 35.28331 -88.36627 35006 ft 568 kts 80°
2026-05-06 22:24 35.29821 -88.27180 35011 ft 569 kts 80°
2026-05-06 22:24 35.31319 -88.17657 35018 ft 569 kts 80°
2026-05-06 22:25 35.32812 -88.08140 35001 ft 569 kts 80°
2026-05-06 22:25 35.34294 -87.98637 35022 ft 568 kts 81°
2026-05-06 22:26 35.35517 -87.90736 35023 ft 568 kts 81°
2026-05-06 22:26 35.36982 -87.81233 35026 ft 567 kts 81°
2026-05-06 22:27 35.38441 -87.71723 35024 ft 567 kts 81°
2026-05-06 22:27 35.39873 -87.62289 35020 ft 567 kts 81°
2026-05-06 22:28 35.41307 -87.52786 35011 ft 567 kts 81°
2026-05-06 22:28 35.42741 -87.43290 35020 ft 566 kts 81°
2026-05-06 22:29 35.44177 -87.33790 35017 ft 566 kts 81°
2026-05-06 22:29 35.45602 -87.24281 35013 ft 566 kts 81°
2026-05-06 22:30 35.46998 -87.14762 35061 ft 567 kts 81°
2026-05-06 22:30 35.48401 -87.05239 35035 ft 568 kts 81°
2026-05-06 22:31 35.49816 -86.95697 35020 ft 568 kts 81°
2026-05-06 22:31 35.51196 -86.86202 35014 ft 569 kts 81°
2026-05-06 22:32 35.52575 -86.76644 35022 ft 569 kts 81°
2026-05-06 22:32 35.53951 -86.67068 35023 ft 569 kts 81°
2026-05-06 22:33 35.55325 -86.57496 35007 ft 569 kts 81°
2026-05-06 22:33 35.56689 -86.47925 35002 ft 568 kts 81°
2026-05-06 22:34 35.58040 -86.38357 35007 ft 568 kts 82°
2026-05-06 22:34 35.59385 -86.28806 35007 ft 567 kts 81°
2026-05-06 22:35 35.60717 -86.19327 35013 ft 566 kts 82°
2026-05-06 22:35 35.62050 -86.09782 34988 ft 567 kts 81°
2026-05-06 22:36 35.63373 -86.00223 35000 ft 568 kts 81°
2026-05-06 22:36 35.64686 -85.90645 35003 ft 568 kts 82°
2026-05-06 22:37 35.65997 -85.81060 35007 ft 568 kts 82°
2026-05-06 22:37 35.67305 -85.71466 35008 ft 569 kts 82°
2026-05-06 22:38 35.68598 -85.61833 35009 ft 571 kts 81°
2026-05-06 22:38 35.69888 -85.52185 34988 ft 572 kts 81°
2026-05-06 22:39 35.71168 -85.42589 34960 ft 572 kts 82°
2026-05-06 22:39 35.72446 -85.32922 34967 ft 572 kts 82°
2026-05-06 22:40 35.73716 -85.23267 34958 ft 572 kts 82°
2026-05-06 22:40 35.74977 -85.13613 34957 ft 571 kts 82°
2026-05-06 22:41 35.76861 -84.99109 34946 ft 570 kts 81°
2026-05-06 22:42 35.78104 -84.89474 34942 ft 569 kts 82°
2026-05-06 22:42 35.79337 -84.79841 34941 ft 569 kts 82°
2026-05-06 22:43 35.80554 -84.70266 34926 ft 569 kts 82°
2026-05-06 22:43 35.81768 -84.60627 34931 ft 569 kts 82°
2026-05-06 22:44 35.82966 -84.51001 34940 ft 568 kts 82°
2026-05-06 22:44 35.84164 -84.41373 34937 ft 568 kts 82°
2026-05-06 22:45 35.85361 -84.31761 34928 ft 567 kts 82°
2026-05-06 22:45 35.86546 -84.22149 34909 ft 567 kts 82°
2026-05-06 22:46 35.87702 -84.12600 34926 ft 567 kts 82°
2026-05-06 22:46 35.88859 -84.02987 34941 ft 567 kts 82°
2026-05-06 22:47 35.90050 -83.93360 34962 ft 567 kts 78°
2026-05-06 22:47 35.92456 -83.84181 34963 ft 560 kts 60°
2026-05-06 22:48 35.95720 -83.75462 34963 ft 559 kts 61°
2026-05-06 22:48 35.98958 -83.66718 34941 ft 559 kts 61°
2026-05-06 22:49 36.02157 -83.58035 34923 ft 559 kts 62°
2026-05-06 22:49 36.05380 -83.49285 34911 ft 559 kts 61°
2026-05-06 22:50 36.08598 -83.40548 35011 ft 558 kts 61°
2026-05-06 22:50 36.11811 -83.31802 34988 ft 559 kts 61°
2026-05-06 22:51 36.15016 -83.23039 34968 ft 559 kts 61°
2026-05-06 22:51 36.18207 -83.14267 34946 ft 559 kts 61°
2026-05-06 22:52 36.21399 -83.05486 34952 ft 559 kts 61°
2026-05-06 22:52 36.24585 -82.96700 34968 ft 559 kts 61°
2026-05-06 22:53 36.27763 -82.87914 34974 ft 558 kts 61°
2026-05-06 22:53 36.30923 -82.79187 34993 ft 559 kts 61°
2026-05-06 22:54 36.34092 -82.70362 34970 ft 559 kts 61°
2026-05-06 22:54 36.37242 -82.61555 34958 ft 558 kts 61°
2026-05-06 22:55 36.40396 -82.52743 34945 ft 558 kts 61°
2026-05-06 22:55 36.43546 -82.43929 34969 ft 558 kts 61°
2026-05-06 22:56 36.46685 -82.35113 34972 ft 557 kts 61°
2026-05-06 22:56 36.49797 -82.26297 35010 ft 556 kts 62°
2026-05-06 22:57 36.52898 -82.17504 34955 ft 554 kts 62°
2026-05-06 22:57 36.55977 -82.08785 34940 ft 554 kts 62°
2026-05-06 22:58 36.59072 -81.99997 34975 ft 554 kts 62°
2026-05-06 22:58 36.62150 -81.91192 34971 ft 554 kts 62°
2026-05-06 22:59 36.65124 -81.82314 34952 ft 557 kts 69°
2026-05-06 22:59 36.67311 -81.73021 34947 ft 559 kts 71°
2026-05-06 23:00 36.69477 -81.63708 34933 ft 559 kts 71°
2026-05-06 23:00 36.71636 -81.54389 34991 ft 560 kts 71°
2026-05-06 23:01 36.73803 -81.45057 34996 ft 561 kts 71°
2026-05-06 23:01 36.75951 -81.35780 34995 ft 561 kts 71°
2026-05-06 23:02 36.78099 -81.26419 35005 ft 562 kts 71°
2026-05-06 23:02 36.80240 -81.17049 35001 ft 562 kts 71°
2026-05-06 23:03 36.82371 -81.07677 34974 ft 561 kts 71°
2026-05-06 23:03 36.84495 -80.98308 34987 ft 561 kts 71°
2026-05-06 23:04 36.86619 -80.88939 34990 ft 561 kts 71°
2026-05-06 23:04 36.88730 -80.79561 35009 ft 560 kts 71°
2026-05-06 23:05 36.90830 -80.70179 34973 ft 561 kts 71°
2026-05-06 23:05 36.92921 -80.60775 34940 ft 562 kts 71°
2026-05-06 23:06 36.95013 -80.51353 34914 ft 564 kts 71°
2026-05-06 23:06 36.97095 -80.41878 34927 ft 566 kts 71°
2026-05-06 23:07 36.99107 -80.32356 34940 ft 567 kts 72°
2026-05-06 23:07 37.01083 -80.22856 34942 ft 568 kts 72°
2026-05-06 23:08 37.03057 -80.13292 34726 ft 566 kts 75°
2026-05-06 23:08 37.03636 -80.08426 33192 ft 569 kts 89°
2026-05-06 23:08 37.03415 -80.03494 31755 ft 563 kts 103°
2026-05-06 23:08 37.02504 -79.98820 30798 ft 542 kts 114°
2026-05-06 23:09 37.01130 -79.94521 29891 ft 523 kts 119°
2026-05-06 23:09 36.99686 -79.90402 28768 ft 511 kts 118°
2026-05-06 23:09 36.98273 -79.86371 27617 ft 501 kts 119°
2026-05-06 23:09 36.96876 -79.82419 26494 ft 492 kts 118°
2026-05-06 23:10 36.95493 -79.78541 25380 ft 485 kts 118°
2026-05-06 23:10 36.94123 -79.74728 24431 ft 478 kts 118°
2026-05-06 23:10 36.92766 -79.70971 24061 ft 470 kts 118°
2026-05-06 23:10 36.91422 -79.67255 23604 ft 467 kts 117°
2026-05-06 23:11 36.90093 -79.63580 23088 ft 462 kts 117°
2026-05-06 23:11 36.88778 -79.59942 22642 ft 457 kts 117°
2026-05-06 23:11 36.87480 -79.56350 22198 ft 451 kts 117°
2026-05-06 23:11 36.86198 -79.52795 21721 ft 446 kts 117°
2026-05-06 23:12 36.84945 -79.49328 21280 ft 442 kts 117°
2026-05-06 23:12 36.83684 -79.45844 20826 ft 439 kts 117°
2026-05-06 23:12 36.82430 -79.42385 20356 ft 436 kts 117°
2026-05-06 23:12 36.81188 -79.38954 19904 ft 433 kts 117°
2026-05-06 23:13 36.79950 -79.35541 19445 ft 430 kts 117°
2026-05-06 23:13 36.78715 -79.32143 18988 ft 429 kts 117°
2026-05-06 23:13 36.77484 -79.28758 18527 ft 427 kts 117°
2026-05-06 23:13 36.76256 -79.25391 18044 ft 426 kts 117°
2026-05-06 23:14 36.75033 -79.22042 17587 ft 422 kts 117°
2026-05-06 23:14 36.73823 -79.18726 17132 ft 418 kts 117°
2026-05-06 23:14 36.72622 -79.15442 16717 ft 414 kts 117°
2026-05-06 23:14 36.71834 -79.13289 16426 ft 412 kts 117°
2026-05-06 23:15 36.70650 -79.10052 16004 ft 409 kts 117°
2026-05-06 23:15 36.69429 -79.06875 15552 ft 404 kts 123°
2026-05-06 23:15 36.67789 -79.04099 15132 ft 393 kts 138°
2026-05-06 23:15 36.65014 -79.01365 14584 ft 377 kts 156°
2026-05-06 23:16 36.62653 -79.00078 14180 ft 365 kts 169°
2026-05-06 23:16 36.61007 -78.99554 13915 ft 359 kts 174°
2026-05-06 23:16 36.58610 -78.98868 13501 ft 356 kts 173°
2026-05-06 23:16 36.56211 -78.98175 13114 ft 352 kts 173°
2026-05-06 23:17 36.53841 -78.97483 12725 ft 347 kts 173°
2026-05-06 23:17 36.51496 -78.96797 12348 ft 343 kts 173°
2026-05-06 23:17 36.49183 -78.96120 11967 ft 340 kts 173°
2026-05-06 23:17 36.46892 -78.95454 11578 ft 336 kts 173°
2026-05-06 23:18 36.44625 -78.94795 11220 ft 332 kts 173°
2026-05-06 23:18 36.42408 -78.94148 11089 ft 321 kts 173°
2026-05-06 23:18 36.40342 -78.93260 10726 ft 312 kts 159°
2026-05-06 23:18 36.38539 -78.91765 10424 ft 316 kts 144°
2026-05-06 23:19 36.36978 -78.89850 9984 ft 322 kts 139°
2026-05-06 23:19 36.35450 -78.87865 9732 ft 315 kts 139°
2026-05-06 23:19 36.33940 -78.85922 9408 ft 311 kts 139°
2026-05-06 23:19 36.32433 -78.84004 9048 ft 309 kts 140°
2026-05-06 23:20 36.30935 -78.82106 8671 ft 306 kts 140°
2026-05-06 23:20 36.29459 -78.80236 8139 ft 301 kts 139°
2026-05-06 23:20 36.27993 -78.78383 7436 ft 302 kts 139°
2026-05-06 23:20 36.26529 -78.76541 7113 ft 299 kts 139°
2026-05-06 23:21 36.25079 -78.74714 6717 ft 297 kts 139°
2026-05-06 23:21 36.23640 -78.72892 6454 ft 291 kts 139°
2026-05-06 23:21 36.22254 -78.71132 6328 ft 280 kts 139°
2026-05-06 23:21 36.20918 -78.69437 6130 ft 272 kts 140°
2026-05-06 23:22 36.19607 -78.67776 5859 ft 267 kts 139°
2026-05-06 23:22 36.18318 -78.66142 5570 ft 263 kts 139°
2026-05-06 23:22 36.17058 -78.64517 5300 ft 259 kts 139°
2026-05-06 23:22 36.15824 -78.62909 5036 ft 256 kts 139°
2026-05-06 23:23 36.14603 -78.61316 4771 ft 254 kts 139°
2026-05-06 23:23 36.13397 -78.59739 4496 ft 251 kts 139°
2026-05-06 23:23 36.12202 -78.58182 4228 ft 248 kts 139°
2026-05-06 23:23 36.11040 -78.56669 4038 ft 243 kts 138°
2026-05-06 23:24 36.10137 -78.54883 4002 ft 252 kts 109°
2026-05-06 23:24 36.10057 -78.52709 4006 ft 258 kts 77°
2026-05-06 23:24 36.10857 -78.50745 4011 ft 257 kts 44°
2026-05-06 23:24 36.12308 -78.49544 4005 ft 249 kts 12°
2026-05-06 23:25 36.13975 -78.49423 4011 ft 237 kts 340°
2026-05-06 23:25 36.15386 -78.50325 4008 ft 226 kts 315°
2026-05-06 23:25 36.16545 -78.51618 3996 ft 222 kts 304°
2026-05-06 23:25 36.17155 -78.53286 3991 ft 211 kts 271°
2026-05-06 23:26 36.16868 -78.55018 3994 ft 208 kts 238°
2026-05-06 23:26 36.15881 -78.56347 3995 ft 213 kts 223°
2026-05-06 23:26 36.14731 -78.57507 3994 ft 214 kts 221°
2026-05-06 23:26 36.13550 -78.58640 3849 ft 215 kts 220°
2026-05-06 23:27 36.12375 -78.59764 3615 ft 212 kts 220°
2026-05-06 23:27 36.11094 -78.60669 3372 ft 217 kts 199°
2026-05-06 23:27 36.09598 -78.60991 3129 ft 219 kts 192°
2026-05-06 23:27 36.08090 -78.61192 3009 ft 218 kts 191°
2026-05-06 23:28 36.06587 -78.61377 2998 ft 217 kts 191°
2026-05-06 23:28 36.05085 -78.61554 2997 ft 217 kts 190°
2026-05-06 23:28 36.03653 -78.61725 3003 ft 196 kts 190°
2026-05-06 23:28 36.02334 -78.61930 2996 ft 185 kts 202°
2026-05-06 23:29 36.01354 -78.62864 3027 ft 187 kts 233°
2026-05-06 23:29 36.00472 -78.64086 3008 ft 188 kts 227°
2026-05-06 23:29 35.99551 -78.65216 2999 ft 189 kts 228°
2026-05-06 23:29 35.98633 -78.66346 2872 ft 182 kts 227°
2026-05-06 23:30 35.97746 -78.67445 2672 ft 180 kts 227°
2026-05-06 23:30 35.96871 -78.68530 2462 ft 175 kts 228°
2026-05-06 23:30 35.96034 -78.69564 2253 ft 157 kts 227°
2026-05-06 23:30 35.95303 -78.70471 2043 ft 147 kts 227°
2026-05-06 23:31 35.94600 -78.71342 1839 ft 142 kts 227°
2026-05-06 23:31 35.93888 -78.72225 1665 ft 146 kts 228°
2026-05-06 23:31 35.93179 -78.73123 1467 ft 144 kts 230°
2026-05-06 23:31 35.92487 -78.74005 1295 ft 139 kts 227°
2026-05-06 23:32 35.91824 -78.74847 1093 ft 136 kts 225°
2026-05-06 23:32 35.91163 -78.75648 937 ft 134 kts 223°
2026-05-06 23:32 35.90498 -78.76452 752 ft 132 kts 225°
2026-05-06 23:32 35.89839 -78.77245 580 ft 134 kts 224°
2026-05-06 23:33 35.89182 -78.78052 431 ft 132 kts 225°
2026-05-06 23:33 35.88647 -78.78717 422 ft 80 kts 225°
2026-05-06 23:33 35.88402 -78.79016 425 ft 19 kts 225°
2026-05-06 23:33 35.88326 -78.79073 422 ft 16 kts 192°
2026-05-06 23:34 35.88254 -78.79050 423 ft 0 kts 128°
2026-05-06 23:35 35.88253 -78.79048 423 ft 2 kts 130°
2026-05-06 23:35 35.88190 -78.79063 422 ft 12 kts 235°
2026-05-06 23:35 35.88148 -78.79132 423 ft 8 kts 228°
2026-05-06 23:35 35.88114 -78.79180 423 ft 7 kts 228°
2026-05-06 23:36 35.88044 -78.79270 425 ft 24 kts 225°
2026-05-06 23:36 35.87946 -78.79389 432 ft 17 kts 224°
2026-05-06 23:36 35.87862 -78.79491 427 ft 18 kts 224°
2026-05-06 23:36 35.87770 -78.79600 421 ft 19 kts 223°
2026-05-06 23:37 35.87675 -78.79718 416 ft 20 kts 225°
2026-05-06 23:37 35.87573 -78.79840 421 ft 19 kts 212°
2026-05-06 23:37 35.87457 -78.79788 420 ft 20 kts 134°
2026-05-06 23:37 35.87389 -78.79646 411 ft 19 kts 64°
2026-05-06 23:38 35.87472 -78.79545 414 ft 16 kts 35°
2026-05-06 23:38 35.87515 -78.79538 414 ft 3 kts 339°
2026-05-06 23:38 35.87518 -78.79541 415 ft 1 kts 326°
2026-05-06 23:38 35.87528 -78.79551 407 ft 0 kts 319°